�������l�o���
Date,Time,MP-1(��Sv/h),MP-2(��Sv/h),MP-3(��Sv/h),MP-4(��Sv/h),MP-5(��Sv/h),MP-6(��Sv/h),MP-7(��Sv/h),MP-8(��Sv/h),����,����(m/s),���J
2020/09/02,00:00,0.663,0.933,0.602,1.161,0.826,0.380,0.672,0.631,��,3.8,��
2020/09/02,00:10,0.662,0.931,0.601,1.161,0.826,0.382,0.671,0.630,��,3.9,��
2020/09/02,00:20,0.663,0.930,0.603,1.162,0.826,0.382,0.670,0.628,��,3.6,��
2020/09/02,00:30,0.661,0.934,0.602,1.162,0.826,0.381,0.672,0.631,��,4.2,��
2020/09/02,00:40,0.662,0.932,0.603,1.162,0.827,0.381,0.671,0.632,��,3.9,��
2020/09/02,00:50,0.665,0.936,0.603,1.163,0.827,0.382,0.671,0.630,��,4.0,��
2020/09/02,01:00,0.663,0.936,0.604,1.162,0.829,0.383,0.670,0.630,��,2.9,��
2020/09/02,01:10,0.664,0.935,0.604,1.162,0.827,0.382,0.672,0.630,��,2.5,��
2020/09/02,01:20,0.665,0.934,0.604,1.161,0.827,0.383,0.670,0.631,��,2.0,��
2020/09/02,01:30,0.663,0.936,0.605,1.163,0.827,0.383,0.669,0.632,��,2.2,��
2020/09/02,01:40,0.665,0.937,0.604,1.163,0.828,0.383,0.671,0.631,��,1.1,��
2020/09/02,01:50,0.664,0.935,0.603,1.162,0.829,0.383,0.672,0.632,��,0.9,��
2020/09/02,02:00,0.666,0.937,0.605,1.161,0.829,0.384,0.670,0.630,���쓌,1.9,��
2020/09/02,02:10,0.665,0.934,0.605,1.163,0.829,0.382,0.672,0.632,���쓌,2.8,��
2020/09/02,02:20,0.665,0.935,0.604,1.163,0.829,0.382,0.672,0.630,��,3.3,��
2020/09/02,02:30,0.664,0.935,0.604,1.160,0.828,0.381,0.670,0.632,���k��,2.5,��
2020/09/02,02:40,0.665,0.937,0.606,1.163,0.829,0.382,0.672,0.632,���쓌,1.7,��
2020/09/02,02:50,0.665,0.939,0.603,1.165,0.829,0.382,0.671,0.630,���쓌,1.7,��
2020/09/02,03:00,0.664,0.935,0.604,1.164,0.828,0.384,0.673,0.631,�쓌,1.5,��
2020/09/02,03:10,0.665,0.938,0.605,1.164,0.829,0.384,0.670,0.632,�쓌,1.9,��
2020/09/02,03:20,0.664,0.935,0.605,1.164,0.827,0.383,0.673,0.631,���쓌,2.6,��
2020/09/02,03:30,0.663,0.937,0.605,1.162,0.829,0.383,0.671,0.631,���쓌,2.3,��
2020/09/02,03:40,0.664,0.937,0.604,1.164,0.830,0.382,0.673,0.632,�쓌,2.9,��
2020/09/02,03:50,0.664,0.936,0.604,1.165,0.829,0.384,0.670,0.631,���쓌,0.9,��
2020/09/02,04:00,0.665,0.936,0.605,1.166,0.827,0.382,0.672,0.632,��,1.5,��
2020/09/02,04:10,0.665,0.936,0.604,1.166,0.830,0.383,0.671,0.633,���k��,1.1,��
2020/09/02,04:20,0.665,0.935,0.606,1.163,0.829,0.383,0.672,0.631,���k��,2.3,��
2020/09/02,04:30,0.664,0.937,0.606,1.163,0.828,0.382,0.672,0.631,���k��,2.8,��
2020/09/02,04:40,0.665,0.936,0.605,1.164,0.830,0.382,0.671,0.632,���k��,2.6,��
2020/09/02,04:50,0.667,0.939,0.606,1.166,0.831,0.382,0.671,0.631,���k��,2.0,��
2020/09/02,05:00,0.667,0.936,0.603,1.164,0.830,0.383,0.672,0.631,�k��,2.3,��
2020/09/02,05:10,0.664,0.937,0.605,1.165,0.831,0.383,0.671,0.631,�k��,2.5,��
2020/09/02,05:20,0.664,0.934,0.605,1.164,0.831,0.384,0.671,0.631,�k��,1.7,��
2020/09/02,05:30,0.666,0.938,0.606,1.165,0.831,0.383,0.671,0.632,�k��,1.5,��
2020/09/02,05:40,0.663,0.935,0.605,1.163,0.830,0.382,0.672,0.633,���k��,2.6,��
2020/09/02,05:50,0.668,0.939,0.604,1.164,0.830,0.383,0.674,0.631,�k��,3.0,��
2020/09/02,06:00,0.666,0.939,0.605,1.165,0.828,0.383,0.671,0.631,�k��,3.4,��
2020/09/02,06:10,0.665,0.939,0.607,1.164,0.830,0.382,0.672,0.631,�k��,2.3,��
2020/09/02,06:20,0.666,0.939,0.605,1.164,0.832,0.382,0.672,0.632,�k��,2.6,��
2020/09/02,06:30,0.665,0.940,0.604,1.165,0.832,0.382,0.673,0.632,�k�k��,2.6,��
2020/09/02,06:40,0.665,0.940,0.605,1.164,0.829,0.383,0.672,0.633,�k�k��,2.6,��
2020/09/02,06:50,0.667,0.936,0.605,1.164,0.830,0.382,0.673,0.631,�k�k��,2.5,��
2020/09/02,07:00,0.666,0.937,0.605,1.165,0.832,0.382,0.672,0.632,�k�k��,2.3,��
2020/09/02,07:10,0.668,0.938,0.604,1.164,0.834,0.382,0.671,0.630,�k�k��,2.6,��
2020/09/02,07:20,0.668,0.937,0.604,1.164,0.830,0.381,0.670,0.630,�k�k��,2.5,��
2020/09/02,07:30,0.666,0.938,0.604,1.165,0.832,0.383,0.672,0.631,�k��,2.3,��
2020/09/02,07:40,0.666,0.937,0.604,1.164,0.830,0.383,0.673,0.631,�k��,2.9,��
2020/09/02,07:50,0.668,0.938,0.603,1.166,0.832,0.383,0.671,0.631,�k��,2.6,��
2020/09/02,08:00,0.664,0.937,0.605,1.164,0.832,0.381,0.673,0.629,�k��,2.6,��
2020/09/02,08:10,0.665,0.938,0.604,1.166,0.832,0.383,0.672,0.632,�k�k��,1.9,��
2020/09/02,08:20,0.665,0.935,0.604,1.165,0.831,0.382,0.672,0.628,�k�k��,1.5,��
2020/09/02,08:30,0.663,0.935,0.606,1.165,0.832,0.381,0.672,0.628,�k��,2.2,��
2020/09/02,08:40,0.667,0.932,0.605,1.166,0.832,0.381,0.674,0.630,�k�k��,2.8,��
2020/09/02,08:50,0.665,0.936,0.606,1.166,0.832,0.383,0.672,0.631,�k��,1.7,��
2020/09/02,09:00,0.666,0.937,0.606,1.166,0.833,0.382,0.671,0.628,�k��,1.7,��
2020/09/02,09:10,0.667,0.937,0.606,1.168,0.834,0.382,0.672,0.630,���k��,1.7,��
2020/09/02,09:20,0.667,0.935,0.603,1.167,0.834,0.383,0.673,0.631,���k��,2.0,��
2020/09/02,09:30,0.668,0.936,0.606,1.166,0.833,0.381,0.672,0.630,���k��,2.0,��
2020/09/02,09:40,0.667,0.938,0.604,1.168,0.834,0.381,0.674,0.630,��,2.2,��
2020/09/02,09:50,0.669,0.937,0.605,1.168,0.834,0.382,0.675,0.629,��,2.3,��
2020/09/02,10:00,0.669,0.934,0.606,1.168,0.836,0.383,0.674,0.632,���k��,2.0,��
2020/09/02,10:10,0.669,0.937,0.604,1.167,0.837,0.384,0.674,0.631,�k��,2.3,��
2020/09/02,10:20,0.669,0.935,0.604,1.167,0.834,0.382,0.674,0.631,���k��,1.9,��
2020/09/02,10:30,0.670,0.937,0.605,1.168,0.836,0.384,0.673,0.631,���k��,1.7,��
2020/09/02,10:40,0.668,0.939,0.605,1.171,0.836,0.383,0.674,0.630,�k��,1.7,��
2020/09/02,10:50,0.668,0.935,0.605,1.171,0.837,0.385,0.674,0.633,�k�k��,1.9,��
2020/09/02,11:00,0.668,0.939,0.604,1.169,0.836,0.383,0.675,0.630,�k��,2.3,��
2020/09/02,11:10,0.667,0.937,0.605,1.172,0.838,0.382,0.675,0.632,���k��,2.5,��
2020/09/02,11:20,0.671,0.939,0.606,1.171,0.836,0.383,0.674,0.632,�k��,2.2,��
2020/09/02,11:30,0.669,0.939,0.606,1.171,0.836,0.383,0.674,0.633,�k��,2.3,��
2020/09/02,11:40,0.670,0.942,0.607,1.173,0.838,0.383,0.677,0.632,���k��,2.6,��
2020/09/02,11:50,0.670,0.942,0.607,1.172,0.839,0.384,0.676,0.633,�k,3.4,��
2020/09/02,12:00,0.670,0.945,0.608,1.172,0.837,0.383,0.675,0.631,�k��,2.9,��
2020/09/02,12:10,0.672,0.946,0.607,1.172,0.839,0.384,0.675,0.631,�k��,3.1,��
2020/09/02,12:20,0.671,0.944,0.609,1.173,0.839,0.385,0.677,0.631,���k��,3.3,��
2020/09/02,12:30,0.671,0.945,0.608,1.173,0.838,0.384,0.676,0.634,�k��,2.6,��
2020/09/02,12:40,0.671,0.946,0.609,1.174,0.840,0.385,0.675,0.632,�k��,2.6,��
2020/09/02,12:50,0.670,0.948,0.607,1.174,0.840,0.382,0.676,0.635,���k��,2.8,��
2020/09/02,13:00,0.673,0.947,0.610,1.173,0.839,0.384,0.676,0.634,���k��,2.6,��
2020/09/02,13:10,0.671,0.944,0.607,1.175,0.841,0.385,0.675,0.634,���k��,3.1,��
2020/09/02,13:20,0.672,0.944,0.609,1.174,0.839,0.384,0.677,0.633,�k��,2.8,��
2020/09/02,13:30,0.672,0.941,0.608,1.174,0.841,0.385,0.674,0.634,�k��,2.8,��
2020/09/02,13:40,0.672,0.942,0.609,1.173,0.841,0.385,0.676,0.634,�k��,3.1,��
2020/09/02,13:50,0.671,0.945,0.609,1.175,0.842,0.384,0.677,0.634,���k��,2.6,��
2020/09/02,14:00,0.671,0.948,0.612,1.173,0.843,0.386,0.676,0.634,���k��,3.0,��
2020/09/02,14:10,0.674,0.945,0.610,1.175,0.842,0.384,0.677,0.633,�k��,2.6,��
2020/09/02,14:20,0.672,0.947,0.610,1.174,0.842,0.384,0.675,0.635,���k��,3.0,��
2020/09/02,14:30,0.673,0.944,0.609,1.175,0.842,0.385,0.677,0.634,�k��,2.6,��
2020/09/02,14:40,0.672,0.945,0.609,1.176,0.841,0.385,0.677,0.633,�k��,3.1,��
2020/09/02,14:50,0.674,0.947,0.612,1.177,0.842,0.386,0.679,0.634,���k��,2.8,��
2020/09/02,15:00,0.674,0.947,0.608,1.176,0.842,0.384,0.677,0.633,���k��,2.8,��
2020/09/02,15:10,0.672,0.950,0.611,1.174,0.840,0.382,0.677,0.635,�k��,2.6,��
2020/09/02,15:20,0.674,0.948,0.610,1.177,0.842,0.385,0.678,0.634,���k��,3.0,��
2020/09/02,15:30,0.675,0.950,0.610,1.174,0.840,0.385,0.678,0.634,���k��,2.9,��
2020/09/02,15:40,0.672,0.951,0.611,1.176,0.842,0.385,0.677,0.633,���k��,2.8,��
2020/09/02,15:50,0.673,0.950,0.611,1.176,0.844,0.386,0.675,0.633,��,2.5,��
2020/09/02,16:00,0.674,0.950,0.612,1.175,0.843,0.384,0.676,0.633,���k��,3.1,��
2020/09/02,16:10,0.675,0.950,0.609,1.177,0.844,0.385,0.676,0.633,��,3.4,�L
2020/09/02,16:20,0.673,0.952,0.610,1.174,0.843,0.383,0.676,0.633,���k��,2.9,��
2020/09/02,16:30,0.676,0.952,0.611,1.174,0.844,0.386,0.676,0.633,��,5.1,��
2020/09/02,16:40,0.676,0.950,0.610,1.175,0.843,0.385,0.676,0.634,���k��,2.6,��
2020/09/02,16:50,0.674,0.951,0.610,1.176,0.843,0.385,0.675,0.633,��,6.4,��
2020/09/02,17:00,0.675,0.952,0.610,1.177,0.845,0.386,0.678,0.635,��,7.2,��
2020/09/02,17:10,0.675,0.951,0.611,1.174,0.844,0.385,0.677,0.633,��,7.7,��
2020/09/02,17:20,0.673,0.950,0.611,1.175,0.843,0.386,0.677,0.633,��,7.5,��
2020/09/02,17:30,0.672,0.951,0.611,1.176,0.844,0.387,0.676,0.634,��,7.1,��
2020/09/02,17:40,0.673,0.952,0.611,1.177,0.845,0.387,0.678,0.633,��,7.2,��
2020/09/02,17:50,0.672,0.951,0.613,1.175,0.848,0.386,0.677,0.632,��,6.9,��
2020/09/02,18:00,0.673,0.949,0.612,1.176,0.846,0.386,0.677,0.635,��,7.0,��
2020/09/02,18:10,0.674,0.953,0.611,1.176,0.845,0.385,0.676,0.635,��,6.7,��
2020/09/02,18:20,0.673,0.954,0.614,1.174,0.845,0.387,0.676,0.635,��,7.9,��
2020/09/02,18:30,0.674,0.953,0.614,1.177,0.846,0.387,0.678,0.634,��,7.1,��
2020/09/02,18:40,0.673,0.954,0.612,1.176,0.846,0.386,0.677,0.636,��,8.1,��
2020/09/02,18:50,0.673,0.954,0.612,1.177,0.845,0.388,0.676,0.634,��,8.4,��
2020/09/02,19:00,0.674,0.953,0.613,1.176,0.845,0.386,0.678,0.636,��,8.3,��
2020/09/02,19:10,0.671,0.955,0.613,1.179,0.844,0.387,0.678,0.634,��,7.8,��
2020/09/02,19:20,0.672,0.955,0.613,1.178,0.846,0.386,0.678,0.635,��,8.5,��
2020/09/02,19:30,0.675,0.953,0.611,1.176,0.846,0.385,0.677,0.635,��,9.4,��
2020/09/02,19:40,0.672,0.956,0.613,1.177,0.845,0.386,0.678,0.635,��,9.3,��
2020/09/02,19:50,0.672,0.955,0.613,1.175,0.848,0.384,0.678,0.635,��,8.9,��
2020/09/02,20:00,0.674,0.954,0.612,1.177,0.846,0.386,0.678,0.634,��,8.6,��
2020/09/02,20:10,0.673,0.953,0.612,1.177,0.846,0.385,0.678,0.634,��,8.6,��
2020/09/02,20:20,0.674,0.956,0.613,1.175,0.845,0.386,0.677,0.636,��,9.3,��
2020/09/02,20:30,0.673,0.954,0.615,1.175,0.844,0.384,0.676,0.635,��,8.6,��
2020/09/02,20:40,0.671,0.956,0.612,1.174,0.846,0.386,0.678,0.636,��,8.7,��
2020/09/02,20:50,0.672,0.956,0.612,1.177,0.844,0.386,0.678,0.634,��,8.7,��
2020/09/02,21:00,0.672,0.955,0.613,1.177,0.845,0.384,0.678,0.635,���쓌,8.7,��
2020/09/02,21:10,0.674,0.955,0.612,1.178,0.845,0.385,0.678,0.635,���쓌,9.0,��
2020/09/02,21:20,0.673,0.956,0.611,1.174,0.842,0.385,0.679,0.637,��,8.2,��
2020/09/02,21:30,0.674,0.953,0.612,1.180,0.847,0.384,0.677,0.637,���쓌,7.7,��
2020/09/02,21:40,0.673,0.954,0.613,1.179,0.844,0.385,0.678,0.635,���쓌,8.1,�L
2020/09/02,21:50,0.674,0.954,0.613,1.175,0.848,0.385,0.677,0.636,���쓌,8.1,�L
2020/09/02,22:00,0.674,0.953,0.613,1.175,0.844,0.385,0.677,0.634,���쓌,6.9,�L
2020/09/02,22:10,0.672,0.948,0.610,1.175,0.839,0.384,0.676,0.636,���쓌,6.4,�L
2020/09/02,22:20,0.669,0.946,0.610,1.174,0.836,0.383,0.678,0.634,���쓌,6.3,�L
2020/09/02,22:30,0.666,0.943,0.607,1.170,0.834,0.385,0.676,0.636,���쓌,5.9,�L
2020/09/02,22:40,0.667,0.941,0.607,1.172,0.833,0.384,0.677,0.633,���쓌,6.2,�L
2020/09/02,22:50,0.666,0.940,0.607,1.171,0.833,0.385,0.678,0.634,���쓌,6.4,�L
2020/09/02,23:00,0.668,0.937,0.607,1.172,0.834,0.383,0.677,0.635,���쓌,7.0,�L
2020/09/02,23:10,0.665,0.940,0.605,1.168,0.834,0.384,0.677,0.634,���쓌,7.5,�L
2020/09/02,23:20,0.664,0.936,0.606,1.171,0.834,0.383,0.676,0.634,���쓌,7.9,�L
2020/09/02,23:30,0.664,0.935,0.605,1.170,0.834,0.382,0.676,0.633,���쓌,7.7,�L
2020/09/02,23:40,0.664,0.936,0.606,1.170,0.831,0.384,0.677,0.635,���쓌,7.9,�L
2020/09/02,23:50,0.664,0.936,0.605,1.170,0.833,0.383,0.677,0.636,���쓌,8.4,��
